Tracking 19832 objects as of 25-Aug-2019
HD Live streaming from Space Station
objects crossing your sky now

THORAD DELTA 1 DEB

Track THORAD DELTA 1 DEB now!
10-day predictions


NORAD ID: 10990
Int'l Code: 1974-089EK
Perigee: 1,351.6 km
Apogee: 1,467.4 km
Inclination: 101.3 °
Period: 113.8 minutes
Semi major axis: 7780 km
RCS: 0.0954 m2 (small)
Launch date: November 15, 1974
Source: United States (US)
Launch site: AIR FORCE WESTERN TEST RANGE (AFWTR)

Note: This is SATELLITE DEBRIS
aabbcc
Your satellite tracking list
Your tracking list is empty




NASA's NSSDC Master Catalog

Two Line Element Set (TLE):
1 10990U 74089EK  19236.63280353 -.00000057  00000-0 -72649-4 0  9994
2 10990 101.3002 297.3381 0074430  35.1110 120.3761 12.64998540 66943
Source of the keplerian elements: AFSPC